Location: Squirrel Cove
(50.1074°N, 124.9139°W)
Time: 13:12:16
(UTC-07:00)

ACS3 Solar Sail - Visible Passes

Search period start: 19 September 2024 00:00
Search period end: 29 September 2024 00:00
Orbit: 970 x 1035 km, 97.4° (Epoch: 18 September)

Date Brightness Start Highest point End Pass type
(mag) Time Alt. Az. Time Alt. Az. Time Alt. Az.
19 Sep 2.8 20:02:44 10° ESE 20:08:08 30° ENE 20:13:32 10° N visible
19 Sep 2.3 21:46:40 17° S 21:51:44 64° W 21:58:08 10° NNW visible
19 Sep 4.4 23:34:41 10° W 23:37:03 12° W 23:39:24 10° WNW visible
20 Sep 2.2 20:34:49 11° SE 20:40:44 47° ENE 20:46:49 10° N visible
20 Sep 3.1 22:20:03 15° SSW 22:24:52 38° W 22:30:47 10° NNW visible
21 Sep 1.8 21:08:09 16° SSE 21:13:27 77° ENE 21:19:52 10° N visible
21 Sep 3.8 22:53:23 11° SW 22:58:08 23° W 23:03:02 10° NW visible
22 Sep 2.8 19:57:25 10° ESE 20:02:44 29° ENE 20:08:03 10° N visible
22 Sep 2.2 21:41:28 18° S 21:46:17 66° W 21:52:41 10° NNW visible
22 Sep 4.4 23:28:51 10° WSW 23:31:31 13° W 23:34:12 10° NW visible
23 Sep 2.2 20:29:29 12° SE 20:35:11 45° ENE 20:41:12 10° N visible
23 Sep 3.0 22:14:43 17° SSW 22:19:16 40° W 22:25:14 10° NNW visible
24 Sep 1.8 21:02:42 17° SSE 21:07:46 74° ENE 21:14:07 10° N visible
24 Sep 3.8 22:47:56 12° SW 22:52:22 24° W 22:57:23 10° NW visible
25 Sep 2.9 19:51:44 10° ESE 19:56:57 27° ENE 20:02:09 10° N visible
25 Sep 2.1 21:35:52 20° S 21:40:28 70° W 21:46:50 10° NNW visible
25 Sep 4.3 23:22:39 10° WSW 23:25:37 13° W 23:28:36 10° NW visible
26 Sep 2.3 20:23:47 12° SE 20:29:16 43° ENE 20:35:12 10° N visible
26 Sep 2.9 22:08:59 19° SSW 22:13:16 42° W 22:19:17 10° NNW visible
27 Sep 1.8 20:56:52 18° SSE 21:01:41 70° ENE 21:08:01 10° N visible
27 Sep 3.7 22:42:05 14° SW 22:46:13 25° W 22:51:21 10° NW visible
28 Sep 2.9 19:45:42 10° ESE 19:50:48 26° ENE 19:55:52 10° N visible
28 Sep 2.0 21:29:54 22° S 21:34:14 73° W 21:40:36 10° NNW visible
28 Sep 4.3 23:16:03 10° WSW 23:19:19 14° W 23:22:35 10° NW visible
